Weather Roundup
Issued by NWS Chicago, IL

Home | Current Version | Previous Version | Text Only | Print | Product List | Glossary On
Versions: 1 2 3 4 5 6 7 8 9 10 11 12 13 14 15 16 17 18 19 20 21 22 23 24 25 26 27 28 29 30 31 32 33 34 35 36 37 38 39 40 41 42 43 44 45 46 47 48 49 50
000
NZUS59 KLOT 240410
HRRLOT

CHICAGO AREA WEATHER ROUNDUP
NATIONAL WEATHER SERVICE CHICAGO/ROMEOVILLE IL
1100 PM CDT TUE SEP 23 2014

NOTE: "FAIR" INDICATES FEW OR NO CLOUDS BELOW 12,000 FEET WITH NO
SIGNIFICANT WEATHER AND/OR OBSTRUCTIONS TO VISIBILITY.

* THESE STATIONS ARE NOT UNDER NWS QUALITY CONTROL. THEY ALSO MAY NOT
  REPORT WEATHER SUCH AS PRECIPITATION OR FOG.

ILZ005-006-012>014-019>023-240500-
NORTHEAST ILLINOIS

CITY           SKY/WX    TMP DP  RH WIND       PRES   REMARKS
OHARE          PTCLDY    59  50  72 SE5       30.30S
MIDWAY         PTCLDY    62  53  72 E7        30.31R
AURORA         PTCLDY    53  48  83 CALM      30.31R
LANSING*       CLEAR     55  49  80 CALM      30.31S
JOLIET*        PTCLDY    57  49  74 E3        30.31R
WAUKEGAN       CLEAR     51  49  92 CALM      30.31R
DUPAGE AIRPORT PTCLDY    58  50  75 SE3       30.30R
WHEELING       PTCLDY    59  51  75 SE3       30.32R
KANKAKEE*      PTCLDY    55  50  86 NE3       30.31S
LEWIS AIRPORT* PTCLDY    58  49  72 SE8       30.31R
NORTHERLY IS     N/A     61  57  87 SE3         N/A
$$

WIZ051-052-058>065-066-070>072-240500-
SOUTHEAST WISCONSIN

CITY           SKY/WX    TMP DP  RH WIND       PRES   REMARKS
MILWAUKEE      PTCLDY    57  48  72 CALM      30.31R
KENOSHA*       PTCLDY    49  47  93 CALM      30.32R
RACINE*        CLEAR     56  51  84 CALM      30.32S
BURLINGTON     PTCLDY    46  45  98 CALM      30.31R
WAUKESHA       PTCLDY    54  46  76 S3        30.32R
WEST BEND      PTCLDY    50  46  87 CALM      30.31R
$$

INZ001>003-010>013-019-020-240500-
NORTHWEST INDIANA

CITY           SKY/WX    TMP DP  RH WIND       PRES   REMARKS
GARY*          CLEAR     59  51  74 E6        30.32S
MICHIGAN CITY* NOT AVBL
RENSSELAER*    NOT AVBL
VALPARAISO     CLEAR     52  48  86 NE5       30.33R
$$

LMZ740>746-240500-
SOUTHERN LAKE MICHIGAN

STATION/POSITION TIME  SKY/WX   TEMP WIND        PRES    VSBY
                                AIR  DIR/SP/G
                 (UTC)          (F)  (DEG/KT/KT) (MB)    (MI)
HARRISON CRIB    NOT AVBL
BURNHAM HARBOR   0400            61  140/  4/  6   N/A
CALUMET HARBOR   0400            63  110/  5/  6 1025.1R
BURNS HARBOR     NOT AVBL
MICHIGAN CITY    NOT AVBL
$$

ABBREVIATIONS USED IN REMARKS
   TC - TEMPERATURE IN CELSIUS
  WCI - WIND CHILL INDEX
   HX - HEAT INDEX
  VSB - VISIBILITY
$$



USA.gov is the U.S. government's official web portal to all federal, state and local government web resources and services.